NUSANTARA SATU

Last updated on Thu Jul 03 2025 00:02:48 GMT+0000 (Coordinated Universal Time)

1 44048U 19009A 25183.59553159 -.00000227 00000+0 00000+0 0 9990 2 44048 0.0348 127.6036 0004762 355.9653 157.6959 1.00270628 23268
UTC large
Height (km)
Speed (km/s)
/
Latitude / Longitude
Inclination (degrees)
Orbital Period (minutes)
Azimuth
Elevation
Range (km)
Doppler Factor

Next 0 passes for location: London (51.5072 / 0.1276)

Sorry there are no passes over London.